Погода в Мохакаре

Испания     37˚08′26″N   1˚50′52″W
темп.,
°C
ветер,
м/с
пор.,
м/с
влажн.,
%
обл.,
%
осадки,
мм/ч
давл.,
гПа
погр.,
м
16 января, сб
сб1601:00+11˚сз345113 0.0 102479
04:00+10˚сз34461 0.0 102477
07:00+9˚ссз12421 0.0 102469
10:00+12˚с11430 0.0 102680
13:00+14˚всв56370 0.0 1027629
16:00+13˚юв44620 0.0 1027480
19:00+11˚ююз22770 0.0 1028229
22:00+10˚юз23790 0.0 1029251
17 января, вс
вс1701:00+10˚зюз23800 0.0 1029222
04:00+9˚зюз22790 0.0 1028152
07:00+9˚зюз22720 0.0 1028127
10:00+12˚зсз11500 0.0 102866
13:00+15˚ююз11350 0.0 1027216
16:00+16˚ю22490 0.0 1025138
19:00+13˚юз11660 0.0 102625
22:00+13˚св12570 0.0 102623
18 января, пн
пн1801:00+12˚ссз12548 0.0 102723
04:00+12˚сз124984 0.0 102623
07:00+12˚св234792 0.0 102627
10:00+13˚ссв2358100 0.0 102742
13:00+15˚всв3563100 0.0 1027551
16:00+14˚всв337163 0.0 1026460
19:00+12˚св118340 0.0 102698
22:00+11˚ссв11830 0.0 1027104
19 января, вт
вт1901:00+10˚с11830 0.0 102797
04:00+10˚ссз118417 0.0 102577
07:00+9˚ссз11839 0.0 102572
10:00+12˚сз11740 0.0 102569
13:00+14˚ююв11650 0.0 1024349
16:00+14˚ююв347176 0.0 1022348
19:00+12˚ююз228247 0.0 1022169
22:00+11˚зсз127966 0.0 102295
20 января, ср
ср2001:00+10˚зюз128174 0.0 1020123
04:00+10˚зюз2280100 0.0 1018161
07:00+10˚сз1175100 0.0 101687
10:00+12˚юз1365100 0.0 1016171
13:00+16˚юз4845100 0.0 1014507
16:00+15˚с1451100 0.0 1013103
19:00+13˚зюз346568 0.0 101381
22:00+11˚зюз46790 0.0 1015236